| time (UTC) | temp C | wind direction | speed KPH | gust KPH | rain 1hr cm | rain 24hr cm | rain mn cm | humidity % | barometer mb |
| 20260507050249 | 10 | 200 | 8.0 | 0.0 | 0.00 | 0.00 | 0.00 | 87 | 1011.0 |
| 20260507043231 | 8 | 240 | 8.0 | 0.0 | 0.00 | 0.00 | 0.00 | 93 | 1010.0 |
| 20260507040306 | 8 | 260 | 12.9 | 0.0 | 0.00 | 0.00 | 0.00 | 87 | 1010.0 |
| 20260507033231 | 10 | 260 | 8.0 | 0.0 | 0.00 | 0.00 | 0.00 | 87 | 1010.0 |
| 20260507030306 | 8 | 0 | 0.0 | 0.0 | 0.00 | 0.00 | 0.00 | 93 | 1010.0 |
| 20260507023231 | 11 | 0 | 4.8 | 0.0 | 0.00 | 0.00 | 0.00 | 81 | 1009.0 |
| 20260507020246 | 11 | 250 | 9.7 | 0.0 | 0.00 | 0.00 | 0.00 | 87 | 1009.0 |
| 20260507013305 | 12 | 0 | 3.2 | 0.0 | 0.00 | 0.00 | 0.00 | 87 | 1009.0 |
| 20260507010307 | 12 | 240 | 8.0 | 0.0 | 0.00 | 0.00 | 0.00 | 87 | 1009.0 |
| 20260507003305 | 12 | 280 | 8.0 | 0.0 | 0.00 | 0.00 | 0.00 | 82 | 1009.0 |
| 20260507000306 | 12 | 270 | 8.0 | 0.0 | 0.00 | 0.00 | 0.00 | 93 | 1009.0 |
| 20260506233304 | 12 | 0 | 3.2 | 0.0 | 0.00 | 0.00 | 0.00 | 93 | 1008.0 |
| 20260506230306 | 12 | 290 | 4.8 | 0.0 | 0.00 | 0.00 | 0.00 | 87 | 1008.0 |
| 20260506223304 | 12 | 290 | 8.0 | 0.0 | 0.00 | 0.00 | 0.00 | 82 | 1008.0 |
| 20260506220306 | 12 | 310 | 4.8 | 0.0 | 0.00 | 0.00 | 0.00 | 87 | 1007.0 |
| 20260506213238 | 12 | 260 | 9.7 | 0.0 | 0.00 | 0.00 | 0.00 | 93 | 1007.0 |
| 20260506210240 | 12 | 210 | 8.0 | 0.0 | 0.00 | 0.00 | 0.00 | 87 | 1007.0 |
| 20260506203304 | 12 | 0 | 4.8 | 0.0 | 0.00 | 0.00 | 0.00 | 93 | 1006.0 |
| 20260506200246 | 12 | 280 | 16.1 | 0.0 | 0.00 | 0.00 | 0.00 | 87 | 1006.0 |
| 20260506193305 | 13 | 270 | 24.1 | 0.0 | 0.00 | 0.00 | 0.00 | 87 | 1006.0 |
| 20260506191605 | 13 | 270 | 29.0 | 48.3 | 0.00 | 0.00 | 0.00 | 82 | 1006.0 |
| 20260506191304 | 13 | 270 | 32.2 | 0.0 | 0.00 | 0.00 | 0.00 | 82 | 1006.0 |
| 20260506190518 | 13 | 270 | 29.0 | 0.0 | 0.00 | 0.00 | 0.00 | 87 | 1005.0 |
| 20260506190306 | 15 | 280 | 22.5 | 0.0 | 0.00 | 0.00 | 0.00 | 82 | 1005.0 |
| 20260506183305 | 17 | 300 | 16.1 | 0.0 | 0.00 | 0.00 | 0.00 | 59 | 1003.0 |
| 20260506180306 | 18 | 290 | 16.1 | 0.0 | 0.00 | 0.00 | 0.00 | 52 | 1002.0 |
| 20260506174305 | 20 | 300 | 19.3 | 0.0 | 0.00 | 0.00 | 0.00 | 45 | 1002.0 |
| 20260506173305 | 21 | 0 | 0.0 | 0.0 | 0.00 | 0.00 | 0.00 | 37 | 1002.0 |
| 20260506170307 | 22 | 130 | 12.9 | 0.0 | 0.00 | 0.00 | 0.00 | 33 | 1002.0 |
| 20260506163252 | 22 | 140 | 8.0 | 0.0 | 0.00 | 0.00 | 0.00 | 31 | 1002.0 |
| 20260506160314 | 23 | 220 | 4.8 | 0.0 | 0.00 | 0.00 | 0.00 | 29 | 1003.0 |
| 20260506153305 | 23 | 170 | 11.3 | 0.0 | 0.00 | 0.00 | 0.00 | 29 | 1003.0 |
| 20260506150259 | 23 | 160 | 11.3 | 0.0 | 0.00 | 0.00 | 0.00 | 29 | 1003.0 |
| 20260506143305 | 23 | 190 | 11.3 | 0.0 | 0.00 | 0.00 | 0.00 | 29 | 1004.0 |
| 20260506140246 | 22 | 200 | 14.5 | 0.0 | 0.00 | 0.00 | 0.00 | 35 | 1004.0 |
| 20260506135306 | 22 | 220 | 19.3 | 0.0 | 0.00 | 0.00 | 0.00 | 40 | 1004.0 |
| 20260506133245 | 22 | 120 | 12.9 | 0.0 | 0.00 | 0.00 | 0.00 | 40 | 1004.0 |
| 20260506130315 | 22 | 120 | 9.7 | 0.0 | 0.00 | 0.00 | 0.00 | 37 | 1005.0 |
| 20260506123305 | 22 | 160 | 9.7 | 0.0 | 0.00 | 0.00 | 0.00 | 37 | 1005.0 |
| 20260506120313 | 21 | 200 | 12.9 | 0.0 | 0.00 | 0.00 | 0.00 | 40 | 1006.0 |
| 20260506113237 | 22 | 180 | 14.5 | 0.0 | 0.00 | 0.00 | 0.00 | 37 | 1006.0 |
| 20260506110312 | 21 | 0 | 3.2 | 0.0 | 0.00 | 0.00 | 0.00 | 40 | 1006.0 |
| 20260506103304 | 21 | 0 | 8.0 | 0.0 | 0.00 | 0.00 | 0.00 | 46 | 1006.0 |
| 20260506100244 | 20 | 0 | 8.0 | 0.0 | 0.00 | 0.00 | 0.00 | 49 | 1007.0 |
| 20260506093238 | 20 | 120 | 11.3 | 0.0 | 0.00 | 0.00 | 0.00 | 49 | 1007.0 |
| 20260506090248 | 18 | 150 | 8.0 | 0.0 | 0.00 | 0.00 | 0.00 | 55 | 1007.0 |
| 20260506083237 | 17 | 0 | 8.0 | 0.0 | 0.00 | 0.00 | 0.00 | 59 | 1007.0 |
| 20260506080312 | 17 | 0 | 3.2 | 0.0 | 0.00 | 0.00 | 0.00 | 59 | 1007.0 |
| 20260506073237 | 17 | 180 | 9.7 | 0.0 | 0.00 | 0.00 | 0.00 | 67 | 1008.0 |
| 20260506070314 | 16 | 0 | 4.8 | 0.0 | 0.00 | 0.00 | 0.00 | 72 | 1007.0 |
| 20260506060314 | 13 | 110 | 9.7 | 0.0 | 0.00 | 0.00 | 0.00 | 82 | 1008.0 |